647  
ASUS42 KCHS 260827  
RWRCHS  
 
REGIONAL WEATHER ROUNDUP  
NATIONAL WEATHER SERVICE CHARLESTON SC  
400 AM EDT SUN MAR 26 2017  
 
NOTE: "FAIR" INDICATES FEW OR NO CLOUDS BELOW 12,000 FEET WITH NO  
SIGNIFICANT WEATHER AND/OR S TO VISIBILITY
.  
 
NOT ALL STATIONS ARE QUALITY CONTROLLED. USE DATA WITH CAUTION...  
ESPECIALLY DEWPOINT OBSERVATIONS.  
 
SCZ027-030-031-034>040-042>050-260900-   
..SOUTHEAST SOUTH CAROLINA
 
 
 
CITY SKY/WX TMP DP RH WIND PRES REMARKS
 
N CHARLESTON MOCLDY 61 56 83 SE5 30.17F  
WATERFRONT PRK N/A 62 60 93 SE7 30.17F  
JOHNS ISLAND FAIR 61 57 88 CALM 30.17F  
PINOPOLIS N/A 61 57 88 CALM 30.08F  
MONCKS CORNER FAIR 52 50 93 CALM 30.17F  
SUMMERVILLE FAIR 52 52 100 CALM 30.18F  
BEAUFORT MCAS PTCLDY 57 57 100 CALM 30.17F  
BEAUFORT ARPT FAIR 59 55 88 CALM 30.17S  
HILTON HEAD IS PTCLDY 63 59 88 S5 30.17F  
WALTERBORO MOSUNNY 52 50 93 CALM 30.18F FOG  
ALLENDALE FAIR 54 54 100 CALM 30.16F  
   
..SOUTHERN MIDLANDS AND PEE DEE
 
 
 
CITY SKY/WX TMP DP RH WIND PRES REMARKS
 
GEORGETOWN FAIR 52 52 100 CALM 30.19F  
KINGSTREE FAIR 52 50 93 CALM 30.18S  
ORANGEBURG CLOUDY 55 53 93 CALM 30.18F  
BARNWELL FAIR 54 54 100 CALM 30.17F  
AIKEN FAIR 55 52 88 SE7 30.18F  
MANNING FAIR 54 52 94 CALM 30.18F  
COLUMBIA MOCLDY 56 51 84 CALM 30.17F  
SUMTER MOCLDY 56 53 88 CALM 30.16F  
FLORENCE PTCLDY 56 54 93 CALM 30.19F  
MYRTLE BEACH CLOUDY 64 57 78 S6 30.20F  
N MYRTLE BEACH MOCLDY 61 57 87 S3 30.19F  
 

 
 
GAZ063-065-086>088-099>101-113>116-118-119-134>141-150-260900-   
..SOUTHEAST GEORGIA
 
 
 
CITY SKY/WX TMP DP RH WIND PRES REMARKS
 
SAVANNAH ARPT PTCLDY 57 54 89 CALM 30.18S  
HUNTER AAF CLEAR 59 57 92 CALM 30.14F  
FORT STEWART MOCLDY 58 55 92 CALM 30.14F  
STATESBORO MOCLDY 57 57 100 CALM 30.16F  
SYLVANIA CLOUDY N/A N/A N/A CALM 30.17F  
CLAXTON PTSUNNY N/A N/A N/A CALM 30.16F  
   
..CSRA...CENTRAL AND FAR SOUTHEAST GEORGIA
 
 
 
CITY SKY/WX TMP DP RH WIND PRES REMARKS
 
THOMSON MOCLDY 60 54 81 SW7 30.19F  
AUGUSTA-BUSH PTCLDY 55 53 93 SE6 30.15F  
AUGUSTA-DANIEL PTCLDY 60 53 77 SE7 30.15F  
SWAINSBORO PTSUNNY 61 57 88 SE9 30.14F  
VIDALIA CLOUDY 63 59 88 SE3 30.14F  
EASTMAN FAIR 62 52 69 CALM 30.15F  
HAZLEHURST FAIR 62 61 94 S3 30.12F  
ALMA PTCLDY 61 59 93 CALM 30.14F  
WAYCROSS MOCLDY 61 61 100 E3 30.14F  
JESUP PTSUNNY 59 54 82 CALM 30.15F  
BAXLEY MOCLDY 61 61 100 CALM 30.14F  
BRUNSWICK MOCLDY 59 59 100 CALM 30.16F FOG  
SAINT SIMONS CLEAR 65 60 84 CALM 30.15S  
 

 
 
SCZ027-028-034-036>038-045-046-048>050-GAZ119-141-260900-   
..LAKE AND SUPPLEMENTAL COASTAL OBSERVATIONS
 
 
 
STATION/POSITION TIME TEMP WIND PRES WAVE SWELL
 
AIR SEA DIR/SP/G HT/PER HT/PER/DIR  
(UTC) (F) (DEG/KT/KT) (MB) (FT/S) (FT/S/D)  
WINYAH BAY 0730 61 260/ 1 1022.0F  
LAKE MURRAY 0750 60 90/ 4/ 4 1021.0F  
ACE BASIN NERRS 0730 61 150/ 1 1022.0S  
FORT PULASKI 0800 64 62 150/ 3/ 5 1021.6  
SAPELO ISLAND 0800 63 CALM 1021.0  
 

 
 
ANZ835-935-AMZ111-154-330-350-352-354-370-450-454-472-260900-   
..C-MAN AND BUOY OBSERVATIONS
 
 
 
STATION/POSITION TIME TEMP WIND PRES WAVE SWELL
 
AIR SEA DIR/SP/G HT/PER HT/PER/DIR  
(UTC) (F) (DEG/KT/KT) (MB) (FT/S) (FT/S/D)  
BUOY 41004 0750 70 71 150/ 14/ 17 1021.6F 5/ 8 3/140/ 8  
BUOY 41008 0750 63 62 100/ 6/ 6 1020.6F 4/ 8 3/130/ 8  
FOLLY BEACH CMAN 0800 63 130/ 8/ 8 1022.2F  
CAPERS NEARSHORE 0808 62 190/ 2/ 6 1021.6F  
FRIPP NEARSHORE 0808 62 60 130/ 4/ 8 1021.0F  
 
 
STATION/POSITION TIME TEMP WIND PRES WAVE SWELL
 
AIR SEA DIR/SP/G HT/PER HT/PER/DIR  
(UTC) (F) (DEG/KT/KT) (MB) (FT/S) (FT/S/D)  
5E ST. MARYS GA 0800 64 N/A 4/ 9  
FRYING PAN BUOY 0810 70 74 150/ 16/ 19 1022.5  
BUOY 41025 0750 69 76 170/ 16/ 17 1023.7F 3/ 5 2/140/ 7  
CAPE LOOKOUT NC 0800 65 160/ 10/ 11 1023.0F  
BUOY 41002 0750 67 72 100/ 14/ 17 1023.5F 5/ 8 3/120/ 8  
BUOY 41010 NOT AVBL  
ST AUGUSTINE FL 0800 66 67 210/ 3/ 3 1021.1F  
 

 
 
 
CLICK HERE TO GO TO PREVIOUS BULLETINS.

The Nexlab SC Page
The Nexlab GA Page Main Text Page